Date String (YYYY-MM-DD hh:mm:ss) UTC,Instrument flags,absolute air pressure of the measurement (hPa),sample flow rate (lpm),inlet stack bypass flow (lpm),air temperature of the measurement (°C),ambient temperature measured by the external sensor (°C),aerosol sample conditioner tube jacket temperature (°C),OPC LED temperature (°C),internal box temperature (°C),relative humidity of the measurement (%),span deviation,mass concentration of particles derived from Lorenz-Mie calculation of OPC scattering (μg/m³),mass concentration of particles derived from Lorenz-Mie calculation of OPC scattering (μg/m³),mass concentration of particles derived from Lorenz-Mie calculation of OPC scattering (μg/m³)
DateTimeUTC,F1_M11,P_M11,Q1_M11,Q2_M11,T1_M11,T2_M11,T3_M11,T4_M11,T5_M11,U1_M11,ZSPAN_M11,X0_M11,X2_M11,X1_M11
2023-11-30 13:00:00,SystemResetWarning,0823.2,5.00,000.00,019.7,018.9,000.0,028.1,020.9,11.4,0000.0,0007.96,0003.74,0003.48
2023-11-30 13:01:00,SystemResetWarning,0823.3,5.01,000.00,019.7,018.9,000.0,028.1,020.9,11.4,0000.0,0007.95,0003.75,0003.49
2023-11-30 13:02:00,SystemResetWarning,0823.2,5.01,000.00,019.7,018.9,000.0,028.1,020.9,11.4,0000.0,0007.91,0003.76,0003.49
2023-11-30 13:03:00,SystemResetWarning,0823.0,5.00,000.00,019.7,018.9,000.0,028.1,020.9,11.4,0000.0,0008.20,0003.76,0003.49
2023-11-30 13:04:00,SystemResetWarning,0823.0,4.99,000.00,019.7,018.9,000.0,028.1,020.9,11.4,0000.0,0008.60,0003.78,0003.49
2023-11-30 13:05:00,SystemResetWarning,0822.9,5.00,000.00,019.7,018.9,000.0,028.1,020.9,11.4,0000.0,0008.11,0003.79,0003.51
2023-11-30 13:06:00,SystemResetWarning,0822.9,5.00,000.00,019.7,018.9,000.0,028.1,020.9,11.4,0000.0,0007.91,0003.79,0003.53
2023-11-30 13:07:00,SystemResetWarning,0823.0,5.00,000.00,019.7,018.9,000.0,028.1,020.9,11.5,0000.0,0007.86,0003.78,0003.54
2023-11-30 13:08:00,SystemResetWarning,0823.1,5.00,000.00,019.7,018.9,000.0,028.1,020.9,11.5,0000.0,0007.76,0003.79,0003.54
2023-11-30 13:09:00,SystemResetWarning,0822.9,5.00,000.00,019.7,018.9,000.0,028.1,020.9,11.5,0000.0,0007.40,0003.78,0003.54
2023-11-30 13:10:00,SystemResetWarning,0822.9,5.00,000.00,019.7,018.9,000.0,028.1,020.9,11.5,0000.0,0007.45,0003.79,0003.54
2023-11-30 13:11:00,SystemResetWarning,0822.9,5.00,000.00,019.7,018.9,000.0,028.1,020.9,11.5,0000.0,0007.03,0003.80,0003.55
2023-11-30 13:12:00,SystemResetWarning,0823.1,5.00,000.00,019.7,018.9,000.0,028.1,020.9,11.5,0000.0,0007.33,0003.84,0003.56
2023-11-30 13:13:00,SystemResetWarning,0823.0,4.99,000.00,019.7,018.9,000.0,028.1,020.9,11.5,0000.0,0007.37,0003.86,0003.55
2023-11-30 13:14:00,SystemResetWarning,0822.9,4.99,000.00,019.7,018.9,000.0,028.1,020.9,11.6,0000.0,0007.16,0003.85,0003.56
2023-11-30 13:15:00,SystemResetWarning,0822.9,5.00,000.00,019.7,018.9,000.0,028.1,020.9,11.6,0000.0,0006.26,0003.86,0003.56
2023-11-30 13:16:00,SystemResetWarning,0823.1,5.00,000.00,019.7,018.9,000.0,028.1,020.9,11.6,0000.0,0006.59,0003.88,0003.58
2023-11-30 13:17:00,SystemResetWarning,0823.0,5.01,000.00,019.7,018.9,000.0,028.1,020.9,11.5,0000.0,0007.13,0003.88,0003.58
2023-11-30 13:18:00,SystemResetWarning,0823.0,5.01,000.00,019.7,018.9,000.0,028.1,020.9,11.5,0000.0,0007.22,0003.89,0003.59
2023-11-30 13:19:00,SystemResetWarning,0823.0,5.00,000.00,019.7,018.9,000.0,028.1,020.9,11.5,0000.0,0007.34,0003.89,0003.60
2023-11-30 13:20:00,SystemResetWarning,0822.9,5.00,000.00,019.7,018.9,000.0,028.1,020.9,11.5,0000.0,0007.44,0003.90,0003.61
2023-11-30 13:21:00,SystemResetWarning,0823.0,4.99,000.00,019.7,018.9,000.0,028.1,020.9,11.5,0000.0,0007.51,0003.92,0003.60
2023-11-30 13:22:00,SystemResetWarning,0822.9,5.00,000.00,019.7,018.9,000.0,028.1,020.9,11.6,0000.0,0007.40,0003.89,0003.59
2023-11-30 13:23:00,SystemResetWarning,0823.0,5.00,000.00,019.7,018.9,000.0,028.1,020.9,11.6,0000.0,0007.16,0003.89,0003.60
2023-11-30 13:24:00,SystemResetWarning,0823.0,5.01,000.00,019.7,018.9,000.0,028.1,020.9,11.6,0000.0,0006.95,0003.85,0003.61
2023-11-30 13:25:00,SystemResetWarning,0823.1,5.00,000.00,019.7,018.9,000.0,028.1,020.9,11.6,0000.0,0007.19,0003.89,0003.62
2023-11-30 13:26:00,SystemResetWarning,0823.1,4.98,000.00,019.7,018.9,000.0,028.0,020.9,11.6,0000.0,0007.27,0003.90,0003.62
2023-11-30 13:27:00,SystemResetWarning,0823.1,4.98,000.00,019.7,018.9,000.0,028.0,020.9,11.5,0000.0,0007.00,0003.88,0003.63
2023-11-30 13:28:00,SystemResetWarning,0823.1,5.00,000.00,019.7,018.9,000.0,028.0,020.8,11.5,0000.0,0006.48,0003.91,0003.64
2023-11-30 13:29:00,SystemResetWarning,0823.3,5.01,000.00,019.7,018.9,000.0,028.0,020.8,11.6,0000.0,0006.45,0003.91,0003.63
2023-11-30 13:30:00,SystemResetWarning,0823.2,5.00,000.00,019.7,018.9,000.0,028.0,020.8,11.6,0000.0,0006.36,0003.92,0003.64
2023-11-30 13:31:00,SystemResetWarning,0823.2,5.00,000.00,019.7,018.9,000.0,028.0,020.8,11.6,0000.0,0006.21,0003.92,0003.64
2023-11-30 13:32:00,SystemResetWarning,0823.3,4.99,000.00,019.7,018.8,000.0,028.0,020.9,11.6,0000.0,0006.10,0003.91,0003.65
2023-11-30 13:33:00,SystemResetWarning,0823.3,4.99,000.00,019.7,018.8,000.0,028.0,020.8,11.6,0000.0,0006.13,0003.92,0003.66
2023-11-30 13:34:00,SystemResetWarning,0823.3,5.01,000.00,019.6,018.8,000.0,028.0,020.8,11.6,0000.0,0006.14,0003.91,0003.65
2023-11-30 13:35:00,SystemResetWarning,0823.2,5.01,000.00,019.6,018.8,000.0,028.0,020.8,11.6,0000.0,0006.09,0003.89,0003.64
2023-11-30 13:36:00,SystemResetWarning,0823.3,5.00,000.00,019.6,018.8,000.0,028.0,020.7,11.6,0000.0,0005.89,0003.87,0003.63
2023-11-30 13:37:00,SystemResetWarning,0823.3,4.99,000.00,019.6,018.8,000.0,028.0,020.7,11.6,0000.0,0005.80,0003.87,0003.63
2023-11-30 13:38:00,SystemResetWarning,0823.3,4.99,000.00,019.6,018.8,000.0,028.0,020.7,11.5,0000.0,0005.83,0003.88,0003.64
2023-11-30 13:39:00,SystemResetWarning,0823.2,5.00,000.00,019.6,018.8,000.0,028.0,020.7,11.4,0000.0,0005.73,0003.85,0003.62
2023-11-30 13:40:00,SystemResetWarning,0823.2,5.00,000.00,019.6,018.8,000.0,028.0,020.7,11.4,0000.0,0006.14,0003.85,0003.62
2023-11-30 13:41:00,SystemResetWarning,0823.2,5.01,000.00,019.6,018.8,000.0,028.0,020.7,11.3,0000.0,0006.66,0003.88,0003.63
2023-11-30 13:42:00,SystemResetWarning,0823.2,5.00,000.00,019.6,018.7,000.0,028.0,020.7,11.3,0000.0,0007.18,0003.90,0003.64
2023-11-30 13:43:00,SystemResetWarning,0823.2,5.00,000.00,019.6,018.7,000.0,028.0,020.7,11.3,0000.0,0007.24,0003.91,0003.64
2023-11-30 13:44:00,SystemResetWarning,0823.2,5.00,000.00,019.5,018.7,000.0,028.0,020.7,11.2,0000.0,0007.42,0003.95,0003.64
2023-11-30 13:45:00,SystemResetWarning,0823.2,5.00,000.00,019.5,018.7,000.0,028.0,020.7,11.4,0000.0,0007.49,0003.97,0003.66
2023-11-30 13:46:00,SystemResetWarning,0823.2,4.99,000.00,019.5,018.7,000.0,028.0,020.7,11.4,0000.0,0007.56,0004.02,0003.69
2023-11-30 13:47:00,SystemResetWarning,0823.2,5.00,000.00,019.5,018.7,000.0,028.0,020.6,11.2,0000.0,0007.67,0004.06,0003.71
2023-11-30 13:48:00,SystemResetWarning,0823.3,5.00,000.00,019.5,018.7,000.0,028.0,020.6,11.1,0000.0,0007.73,0004.08,0003.73
2023-11-30 13:49:00,SystemResetWarning,0823.2,5.01,000.00,019.5,018.6,000.0,027.9,020.6,11.1,0000.0,0007.73,0004.07,0003.74
2023-11-30 13:50:00,SystemResetWarning,0823.3,5.00,000.00,019.5,018.6,000.0,027.9,020.6,11.2,0000.0,0007.81,0004.09,0003.75
2023-11-30 13:51:00,SystemResetWarning,0823.2,5.01,000.00,019.5,018.6,000.0,027.9,020.6,11.3,0000.0,0007.77,0004.11,0003.76
2023-11-30 13:52:00,SystemResetWarning,0823.3,5.00,000.00,019.4,018.6,000.0,027.9,020.6,11.3,0000.0,0007.44,0004.09,0003.78
2023-11-30 13:53:00,SystemResetWarning,0823.3,4.98,000.00,019.4,018.6,000.0,027.9,020.6,11.3,0000.0,0007.08,0004.09,0003.78
2023-11-30 13:54:00,SystemResetWarning,0823.3,5.00,000.00,019.4,018.6,000.0,027.9,020.5,11.4,0000.0,0006.96,0004.10,0003.79
2023-11-30 13:55:00,SystemResetWarning,0823.3,5.01,000.00,019.4,018.6,000.0,027.9,020.5,11.3,0000.0,0006.81,0004.09,0003.80
2023-11-30 13:56:00,SystemResetWarning,0823.3,5.01,000.00,019.4,018.6,000.0,027.9,020.5,11.1,0000.0,0006.66,0004.09,0003.80
2023-11-30 13:57:00,SystemResetWarning,0823.3,5.00,000.00,019.4,018.6,000.0,027.9,020.5,11.1,0000.0,0006.63,0004.08,0003.79
2023-11-30 13:58:00,SystemResetWarning,0823.3,4.98,000.00,019.4,018.5,000.0,027.8,020.5,11.1,0000.0,0006.68,0004.08,0003.79
2023-11-30 13:59:00,SystemResetWarning,0823.3,4.99,000.00,019.4,018.5,000.0,027.8,020.5,11.1,0000.0,0006.68,0004.08,0003.78
